Wind_Speed
30 31 32 32 32 33 34 34 35 35 36 36 37 37 38 40 41 42 42 44 44 44 45 45 46 46 46 47 47 47 47 48 47 47 47 47 46 46 45 44 44 43 42
31 32 33 34 35 36 37 37 37 38 38 40 41 41 41 42 43 43 44 45 46 46 47 46 46 46 47 47 47 47 47 46 46 45 45 45 45 44 44 43 43 42 41
34 34 35 37 37 38 39 40 41 42 42 43 44 44 44 44 45 45 45 45 45 46 46 46 46 46 46 46 46 45 45 45 45 44 44 43 43 43 43 42 41 41 40
36 37 37 38 39 40 41 42 43 44 44 45 45 46 45 45 45 45 46 46 45 45 45 45 45 45 45 44 44 44 44 44 43 43 43 42 42 42 41 41 40 39 38
40 41 42 43 43 43 44 45 46 46 46 47 47 47 47 47 47 46 46 46 45 45 45 44 44 44 43 43 43 43 43 42 42 42 42 41 41 40 39 38 38 37 36
43 44 45 46 47 47 47 48 48 48 48 48 48 48 48 48 47 47 46 46 45 44 44 44 43 43 43 43 42 42 42 41 41 41 41 40 39 38 37 36 35 34 33
46 47 48 48 49 50 50 50 49 49 49 49 49 48 48 47 47 46 46 46 45 44 44 44 43 43 42 42 42 42 41 41 40 40 39 38 37 36 35 34 33 32 31
47 48 49 50 50 51 51 50 50 50 50 49 49 49 48 47 47 47 46 46 45 45 45 44 43 42 42 42 41 41 41 40 39 38 38 36 35 35 34 33 32 31 30
49 50 50 51 51 52 51 51 51 50 50 50 49 49 48 48 48 47 47 46 46 45 45 44 44 43 42 41 41 41 40 39 38 37 36 35 34 33 32 31 30 30 29
51 52 52 52 52 52 52 51 51 51 50 50 50 49 49 48 48 47 47 46 46 46 45 44 44 43 42 41 41 40 39 38 37 35 34 33 32 32 31 30 29 28 27
54 54 55 54 54 54 53 52 52 51 51 51 51 50 49 49 48 48 47 46 46 45 45 44 43 42 41 41 40 39 38 37 36 35 34 32 31 31 30 29 28 27 26
55 56 56 55 55 54 54 53 52 52 52 51 50 50 49 48 48 47 47 46 45 45 44 43 42 41 40 39 39 38 38 36 35 34 33 32 31 30 30 29 27 26 26
54 55 55 55 55 54 54 53 52 52 51 51 51 50 49 49 48 47 47 46 45 44 43 42 41 40 39 39 38 38 37 36 35 34 33 32 30 30 29 28 27 27 26
54 54 54 53 53 52 52 52 52 51 50 50 50 49 49 49 48 48 47 47 46 45 43 42 41 40 39 39 38 37 36 35 34 33 32 31 30 29 29 28 27 27 27
53 53 53 53 53 52 51 51 50 50 49 49 49 49 48 48 48 48 46 45 45 44 43 42 41 41 40 38 37 36 36 35 34 32 32 31 30 29 29 29 28 28 27
52 52 52 52 52 52 51 50 49 49 49 49 48 48 48 48 47 47 46 45 44 44 43 42 41 40 39 38 37 36 35 34 34 33 32 31 31 30 29 29 29 29 29
51 50 50 50 50 50 50 50 49 48 48 48 47 47 47 46 46 46 46 45 44 44 43 42 41 40 39 38 37 37 35 35 34 33 33 32 31 31 30 30 30 30 29
48 48 48 48 48 48 48 48 48 48 48 47 46 46 46 46 46 46 46 45 44 43 42 41 41 40 39 39 38 37 36 35 34 33 33 32 32 32 32 31 31 31 31
47 47 46 46 46 46 46 46 46 47 47 47 47 46 46 46 46 46 46 44 43 42 41 40 40 40 39 38 38 37 36 35 34 34 33 33 33 33 32 32 32 32 32
46 46 45 44 44 44 44 44 45 45 46 46 46 46 46 46 46 45 45 44 43 41 40 40 39 39 38 38 37 37 36 35 35 34 34 34 33 32 32 32 33 33 33
45 45 45 43 43 43 43 43 43 44 44 45 45 45 45 45 45 45 44 44 43 42 41 40 39 39 38 37 37 36 36 35 35 34 34 33 33 33 33 33 34 34 34
43 43 43 43 42 41 41 41 42 42 43 43 44 45 45 44 44 44 43 43 42 42 41 40 39 38 38 37 37 36 36 35 34 34 34 34 33 33 34 34 34 35 35
40 40 39 39 39 39 39 39 39 40 40 41 42 43 43 43 43 43 43 43 42 42 41 40 38 37 37 37 36 36 36 35 35 35 34 35 35 35 35 35 35 36 36
37 37 36 35 35 36 36 36 37 37 38 39 40 40 41 41 41 41 41 41 41 40 40 39 38 37 37 36 36 36 36 36 36 35 35 35 35 35 35 36 36 36 36
36 35 34 34 33 33 32 32 33 35 36 37 38 39 39 39 39 38 39 39 39 38 38 38 37 36 35 35 35 35 35 35 35 35 35 35 35 35 36 36 36 36 36
35 34 33 31 30 29 28 29 30 31 32 34 36 36 36 37 37 37 37 37 36 36 36 36 37 36 35 35 35 34 34 34 34 35 35 35 35 35 35 36 36 36 37
Wind_Direction
256 257 259 261 261 261 261 262 262 261 260 259 260 261 262 263 266 269 271 272 273 275 276 279 281 282 283 285 286 287 287 288 288 288 288 288 289 289 289 289 289 288 287
259 260 260 261 262 263 263 263 262 261 262 262 262 264 264 265 267 269 270 272 272 274 276 277 279 281 282 284 285 285 286 286 287 287 288 288 288 289 289 288 288 287 287
260 262 262 261 261 262 262 262 263 263 264 264 265 266 266 267 268 269 269 271 272 273 275 277 278 279 280 282 283 284 285 285 286 287 287 288 288 289 288 288 287 286 285
261 261 262 262 261 261 261 262 263 264 264 265 266 266 267 267 268 269 270 271 272 273 275 276 277 278 279 280 281 283 284 285 286 287 288 288 288 288 288 287 286 285 284
262 263 263 264 264 264 264 264 265 265 266 266 267 267 267 268 269 269 270 270 271 272 273 275 276 277 279 280 281 283 284 285 286 287 288 288 288 288 287 286 285 284 282
265 265 265 265 265 265 265 265 266 265 265 266 267 267 267 267 267 268 269 270 271 271 272 273 274 276 278 279 281 282 284 285 286 286 287 287 287 287 286 286 285 283 281
267 268 268 267 266 266 266 266 266 266 266 266 266 266 266 266 266 267 268 268 269 270 271 272 274 276 277 279 281 282 284 285 285 285 286 286 285 285 285 284 283 282 280
269 269 268 268 268 267 267 267 266 266 265 265 265 266 265 265 265 266 267 267 268 269 270 272 273 274 276 278 280 282 283 283 284 284 284 284 283 283 283 282 281 280 278
272 271 270 269 269 268 268 267 266 265 265 264 264 264 264 264 264 264 265 266 267 268 269 270 272 273 275 277 279 280 281 281 282 282 281 281 281 281 281 280 279 278 276
273 272 272 271 270 269 268 267 266 265 265 264 263 263 263 263 263 264 264 265 266 267 268 269 271 272 274 276 278 279 279 279 279 279 279 278 278 279 278 277 277 276 274
274 273 272 271 270 270 268 267 266 265 264 264 263 263 263 262 263 263 264 264 265 266 266 268 269 271 273 275 276 277 277 277 276 276 276 275 275 276 276 276 275 273 272
274 273 272 271 270 269 268 267 265 265 264 263 262 262 262 261 261 262 262 263 263 264 265 266 267 269 271 272 274 275 275 274 273 273 273 273 273 273 273 273 272 271 270
276 275 274 272 271 269 267 266 265 264 262 261 260 260 260 260 260 260 260 261 261 262 263 264 266 267 269 271 272 273 273 272 270 269 270 270 271 271 271 270 270 269 270
276 275 274 272 271 269 267 265 263 262 261 260 259 258 258 258 258 259 259 259 259 260 261 262 263 265 267 268 270 270 270 269 268 266 267 268 268 269 269 269 268 268 269
278 277 274 272 270 269 266 265 263 261 260 258 257 256 256 256 256 256 257 257 258 258 260 261 262 263 265 266 267 267 267 266 265 264 264 266 266 267 267 267 266 267 267
279 277 275 273 271 268 266 264 262 260 258 257 256 255 254 254 254 254 254 254 256 257 258 259 260 261 262 263 265 265 265 264 262 263 263 264 265 265 266 266 266 267 268
280 278 276 273 271 269 266 263 260 258 257 255 254 253 251 251 252 252 253 253 254 256 257 258 258 258 259 261 262 263 262 261 261 262 261 262 263 264 265 266 266 266 267
281 279 278 275 273 270 267 264 260 256 254 253 252 250 249 248 248 249 251 252 253 255 256 256 256 257 258 260 260 260 259 259 259 260 260 261 262 263 264 265 265 266 267
283 282 279 276 274 271 267 263 259 256 254 252 250 250 248 247 247 247 248 250 251 252 253 254 255 255 256 257 257 256 257 257 258 259 260 260 261 262 263 263 265 266 268
284 282 280 277 274 271 267 263 260 257 254 251 249 248 247 247 246 246 247 248 249 250 251 252 253 255 255 255 255 255 255 256 257 258 259 260 260 261 262 263 265 267 268
285 282 280 278 275 271 268 264 260 257 253 249 246 244 244 245 245 245 245 246 247 248 250 251 252 253 253 253 253 254 254 254 256 257 258 259 259 260 262 264 266 267 269
287 283 280 278 275 271 268 264 260 256 253 249 245 244 244 243 243 244 244 244 246 247 249 251 251 251 251 251 251 252 253 254 256 257 257 258 259 261 263 264 266 268 269
289 286 282 280 276 272 268 264 259 255 251 247 243 242 242 242 242 242 243 244 245 246 248 249 249 250 250 250 250 251 253 254 255 256 256 258 260 262 264 265 267 268 270
292 288 285 282 278 274 268 263 258 254 249 245 242 240 240 240 241 241 242 242 243 244 245 246 247 247 248 248 250 251 253 254 255 256 257 259 260 262 264 266 267 269 271
294 290 287 283 279 274 269 263 257 252 248 243 240 239 238 238 239 240 240 240 241 242 242 243 244 245 246 248 249 251 252 253 254 255 257 259 261 263 264 266 268 270 272
296 292 289 284 278 272 268 263 256 250 245 241 238 237 237 236 236 237 237 238 239 240 241 242 242 243 245 247 248 250 251 253 254 256 257 259 261 263 265 267 269 270 272
Height
5692 5695 5697 5699 5701 5703 5705 5707 5709 5711 5713 5715 5716 5717 5719 5719 5720 5720 5721 5721 5722 5721 5721 5720 5719 5718 5717 5715 5713 5711 5709 5707 5705 5703 5699 5696 5692 5689 5686 5683 5680 5678 5675
5686 5688 5690 5691 5693 5695 5696 5698 5700 5702 5703 5705 5706 5707 5708 5708 5709 5709 5709 5709 5709 5709 5709 5708 5707 5706 5705 5703 5701 5699 5697 5694 5692 5690 5687 5684 5681 5678 5675 5672 5669 5667 5664
5679 5680 5682 5683 5685 5686 5687 5689 5690 5691 5692 5694 5695 5696 5696 5697 5697 5697 5697 5697 5697 5697 5696 5695 5695 5694 5692 5691 5689 5687 5685 5683 5680 5678 5676 5672 5670 5667 5664 5661 5658 5656 5654
5670 5671 5672 5673 5675 5676 5677 5678 5679 5680 5681 5682 5682 5683 5684 5684 5685 5685 5685 5684 5684 5684 5683 5683 5682 5681 5680 5679 5677 5675 5673 5671 5669 5666 5664 5661 5658 5655 5653 5650 5648 5646 5644
5661 5662 5662 5663 5664 5665 5665 5666 5667 5668 5668 5669 5670 5670 5671 5671 5672 5672 5672 5672 5671 5671 5671 5671 5670 5669 5668 5667 5665 5663 5661 5659 5657 5655 5652 5650 5647 5644 5642 5640 5637 5635 5633
5651 5651 5651 5652 5652 5652 5653 5653 5654 5654 5655 5656 5656 5657 5658 5658 5658 5659 5659 5659 5659 5659 5658 5658 5658 5657 5656 5655 5653 5651 5650 5648 5646 5643 5641 5639 5636 5634 5632 5629 5628 5626 5624
5639 5639 5639 5639 5639 5639 5639 5640 5640 5641 5641 5642 5643 5643 5644 5645 5645 5645 5645 5646 5646 5646 5646 5645 5645 5644 5644 5643 5641 5640 5638 5636 5634 5632 5630 5628 5626 5624 5622 5620 5618 5617 5615
5626 5626 5625 5625 5625 5625 5625 5625 5625 5626 5627 5627 5628 5629 5630 5630 5631 5631 5632 5632 5632 5633 5633 5633 5632 5632 5631 5630 5629 5628 5626 5624 5623 5621 5619 5617 5615 5614 5612 5611 5609 5608 5606
5612 5611 5610 5609 5609 5609 5609 5609 5610 5611 5612 5612 5613 5614 5615 5616 5617 5617 5618 5618 5619 5619 5619 5620 5620 5620 5619 5618 5617 5616 5614 5613 5611 5610 5608 5607 5606 5604 5603 5602 5600 5599 5598
5598 5596 5595 5594 5593 5593 5593 5593 5594 5594 5595 5596 5598 5599 5600 5601 5602 5603 5603 5604 5605 5606 5606 5606 5606 5607 5606 5605 5605 5604 5603 5602 5601 5599 5598 5597 5596 5595 5594 5593 5592 5591 5590
5582 5580 5579 5578 5577 5577 5577 5577 5577 5578 5579 5580 5582 5583 5584 5586 5587 5588 5589 5590 5591 5592 5593 5593 5593 5594 5593 5593 5592 5592 5591 5591 5590 5589 5588 5587 5587 5586 5585 5584 5583 5583 5582
5566 5564 5562 5561 5560 5559 5559 5560 5560 5561 5563 5564 5565 5567 5569 5570 5572 5573 5574 5576 5577 5578 5579 5580 5580 5580 5581 5580 5580 5580 5580 5579 5579 5579 5578 5578 5577 5577 5576 5576 5575 5575 5574
5550 5547 5545 5543 5542 5542 5542 5543 5543 5544 5546 5547 5549 5551 5553 5554 5556 5558 5559 5561 5562 5564 5565 5566 5567 5568 5568 5568 5568 5568 5569 5568 5568 5568 5568 5568 5568 5568 5567 5567 5567 5567 5566
5532 5530 5527 5526 5525 5524 5524 5525 5526 5527 5529 5531 5533 5535 5537 5539 5541 5543 5545 5546 5548 5550 5552 5553 5554 5555 5556 5556 5557 5557 5557 5558 5558 5558 5558 5559 5559 5558 5558 5558 5558 5558 5558
5514 5512 5509 5508 5507 5506 5506 5507 5508 5510 5511 5514 5516 5518 5521 5524 5526 5528 5530 5532 5534 5536 5538 5540 5541 5542 5544 5545 5545 5546 5546 5547 5547 5548 5549 5549 5549 5549 5549 5550 5550 5550 5550
5496 5493 5491 5489 5488 5487 5488 5489 5490 5492 5494 5496 5499 5502 5505 5508 5510 5513 5515 5518 5520 5522 5524 5526 5528 5530 5531 5533 5534 5535 5535 5536 5537 5538 5539 5539 5540 5540 5540 5540 5540 5541 5541
5478 5475 5473 5471 5470 5469 5469 5471 5473 5475 5477 5480 5483 5486 5489 5492 5495 5498 5501 5503 5506 5508 5511 5513 5515 5517 5519 5521 5522 5523 5524 5525 5527 5527 5528 5529 5530 5530 5531 5531 5531 5531 5531
5461 5458 5455 5454 5452 5452 5452 5453 5454 5457 5460 5463 5466 5469 5473 5476 5480 5483 5486 5489 5492 5495 5498 5500 5503 5505 5506 5508 5510 5512 5513 5515 5516 5517 5518 5519 5519 5520 5521 5521 5521 5522 5522
5445 5441 5438 5436 5435 5434 5434 5435 5437 5439 5443 5446 5450 5453 5457 5460 5464 5468 5471 5475 5479 5482 5485 5488 5490 5492 5494 5496 5498 5500 5502 5503 5505 5506 5507 5508 5509 5510 5510 5511 5511 5511 5512
5428 5425 5422 5420 5419 5418 5418 5418 5420 5422 5426 5429 5434 5437 5441 5444 5449 5453 5457 5462 5465 5469 5472 5475 5477 5480 5482 5484 5486 5488 5490 5492 5494 5495 5496 5497 5498 5499 5500 5500 5501 5501 5501
5412 5409 5406 5404 5402 5402 5402 5403 5404 5407 5409 5413 5417 5421 5425 5430 5434 5439 5443 5448 5452 5456 5459 5462 5465 5468 5470 5472 5475 5477 5479 5481 5483 5484 5485 5487 5488 5489 5489 5490 5490 5490 5490
5396 5393 5390 5388 5387 5386 5386 5387 5389 5391 5394 5398 5402 5406 5410 5415 5420 5425 5430 5434 5439 5443 5446 5450 5453 5456 5458 5461 5463 5465 5468 5470 5471 5473 5474 5476 5477 5478 5479 5479 5479 5479 5479
5381 5378 5375 5373 5372 5371 5372 5372 5374 5376 5379 5383 5387 5392 5397 5402 5406 5411 5416 5421 5426 5430 5433 5437 5441 5444 5447 5449 5452 5454 5457 5459 5460 5462 5463 5465 5466 5467 5467 5468 5468 5468 5468
5367 5364 5362 5360 5358 5357 5357 5358 5360 5362 5365 5369 5373 5378 5383 5389 5394 5399 5403 5408 5413 5417 5421 5425 5429 5432 5435 5438 5440 5443 5445 5447 5449 5451 5452 5454 5455 5456 5456 5456 5456 5456 5456
5355 5352 5349 5347 5346 5345 5345 5346 5347 5350 5353 5356 5361 5366 5371 5377 5382 5387 5391 5396 5401 5405 5409 5413 5417 5420 5423 5426 5429 5431 5434 5435 5437 5439 5441 5442 5443 5444 5444 5445 5444 5444 5444
5344 5340 5338 5335 5334 5334 5334 5335 5336 5338 5341 5345 5350 5355 5360 5365 5371 5376 5380 5385 5390 5394 5398 5402 5406 5409 5412 5415 5418 5420 5422 5424 5426 5428 5429 5431 5432 5432 5432 5433 5432 5432 5431